STARLINK-3801, 52356

Orbit data source: Space-Track

STARLINK-3801, 52356 is a payload satellite owned by SpaceX/Seattle (US) in LEO that was launched on Fri, 29 Apr 2022 UTC via an FALCON 9 launch vehicle from the Air Force Eastern Test Range (AFETR). Payload-class satellites include a variety of spacecraft equipped with specific instruments for various scientific and technological missions. These include communications satellites like Starlink; space stations such as the ISS; scientific satellites like the Hubble; Earth observation satellites from companies like Planet Labs, Umbra, and HawkEye 360; GPS; miniature CubeSats for education and research; and military/defense satellites.

Loading next visibility...
Identifier
52356, 2022-045AB
Orbit
LEO
Country
Flag of USUS
Related business
Manufacturer
SpaceX/Seattle
Mission
Operational Commercial Communications
Bus & Motor
STARLINK, Unknown motor
Mass
297 kg wet, ~275 kg dry
Launch date (UTC)
2022-04-29 (4 years ago)
Launch vehicle
FALCON 9
Launch site
Air Force Eastern Test Range (AFETR)
Object type
Payload
Rocket body
Debris
Shape & HBR
Box + 1 Pan, 10.1 m
Radar Cross Section
11.087 m², Large (>1 m²)

Expand to show TLE details & history
Last TLE update: 7 hours ago

TLE from 7 hours ago
0 STARLINK-3801
1 52356U 22045AB  26119.94770793  .00000197  00000-0  30455-4 0  9997
2 52356  53.2185 329.0428 0001317  84.3213 275.7929 15.08836185223528
Epoch: 2026-04-29T22:44Z
TLE epoch observation values (Epoch: 2026-04-29T22:44:41.965Z)
Latitude
-0.00003°
Longitude
129.96657°
Altitude
540.561 km
Speed
7.593 km/s
True Right ascension
21h 56m 10s
True Declination
0° 00' 00"
Sunlit
Object was in daylight at epoch
Visualization orbit readout
Latitude
Unknown
Longitude
Unknown
Altitude
Unknown
Speed
Unknown
Apparent Right ascension
Unknown
Apparent Declination
Unknown
Sunlit
N/A
Visualization observer readout
Local Sidereal Time
13:41:01
Azimuth
Unknown
Elevation
Unknown
Doppler factor
Unknown
Orbital elements
Apogee altitude
540.911 km
Perigee altitude
539.089 km
Semi-major axis
6,918.137 km
Eccentricity
0.00013
Inclination
53.2185°
RAAN
329.0428°
Arg. of periapsis
84.3213°
True anomaly
275.77789°
Mean anomaly
275.7929°
Eccentric anomaly
275.78539°
Mean motion
3.77189 °/min
Orbital period
95.44 mins
BSTAR
0.000030455
Loading maneuver chart data...
Computing Atmospheric mass density...
Loading historical data...
Loading historical data...
Loading historical data...
Loading historical data...
Loading historical data...
Loading historical data...
Loading historical data...

Documentation

Showing up to 5 results
|